DateTimeUTC,F1_A11,F1_S11,BsB_S11,BsG_S11,BsR_S11,BbsB_S11,BbsG_S11,BbsR_S11,BaB_A11,BaG_A11,BaR_A11,T_S11,U_S11,P_S11,T1_A11
2020-03-14T00:00:00Z,00040380,21000600,,,,,,,,,,23.3,00.0,0623.4,30.9
2020-03-14T00:01:00Z,00040380,21000600,,,,,,,,,,23.3,00.0,0623.4,30.8
2020-03-14T00:02:00Z,00040380,21000600,,,,,,,,,,23.3,00.0,0623.4,30.8
2020-03-14T00:03:00Z,00040380,61000600,,,,,,,,,,23.3,00.0,0623.4,30.8
2020-03-14T00:04:00Z,00040380,41000600,0000.35,0000.72,0000.12,0000.56,-000.06,-000.53,-000.12,-000.29,-000.17,23.1,00.0,0624.2,30.8
2020-03-14T00:05:00Z,00040380,01000600,-000.20,0000.35,0000.54,0000.33,0000.06,-000.00,0000.02,-000.07,0000.11,23.0,00.0,0624.3,30.8
2020-03-14T00:06:00Z,00040380,01000600,0000.80,0000.32,0000.07,0000.61,-000.34,0000.19,-000.05,-000.12,-000.17,23.0,00.0,0624.3,30.8
2020-03-14T00:07:00Z,00040380,01000600,0000.64,0000.52,-000.09,0000.05,-000.04,0000.08,0000.28,0000.65,0000.17,23.1,00.0,0624.4,30.8
2020-03-14T00:08:00Z,00040380,01000600,0000.91,0000.10,-000.14,0000.10,0000.02,-000.02,0000.06,-000.37,0000.20,23.1,00.0,0624.4,30.9
2020-03-14T00:09:00Z,00040380,01000600,0000.41,-000.03,0000.14,0001.35,-000.16,0000.05,0000.05,0000.35,-000.07,23.1,00.0,0624.4,30.9
2020-03-14T00:10:00Z,00040380,01000600,0000.46,0000.56,-000.06,0000.44,0000.16,-000.53,0000.03,0000.08,0000.15,23.1,00.0,0624.4,30.9
2020-03-14T00:11:00Z,00040380,01000600,0001.50,0000.36,-000.05,0000.24,-000.05,-000.46,-000.04,-000.06,-000.03,23.0,00.0,0624.3,30.9
2020-03-14T00:12:00Z,00040380,01000600,0000.92,0000.42,0000.28,0001.03,0000.33,0000.49,0000.31,0000.15,0000.09,23.0,00.0,0624.3,30.8
2020-03-14T00:13:00Z,00040380,01000600,0001.37,0001.00,0000.18,0000.29,-000.32,-000.21,-000.32,-000.08,-000.09,23.0,00.0,0624.3,30.8
2020-03-14T00:14:00Z,00040380,01000600,0000.77,0000.07,-000.10,0000.68,-000.04,0000.17,0000.13,0000.02,0000.06,23.0,00.0,0624.3,30.8
2020-03-14T00:15:00Z,00040380,01000600,0000.74,0000.79,-000.24,0001.44,0000.25,0000.21,-000.02,-000.03,-000.06,23.0,00.0,0624.3,30.8
2020-03-14T00:16:00Z,00040380,01000600,0001.15,0000.71,-000.14,0000.01,0000.10,-000.01,0000.15,0000.26,0000.11,23.0,00.0,0624.3,30.8
2020-03-14T00:17:00Z,00040380,01000600,0000.72,0000.06,0000.37,0001.38,0000.32,-000.06,-000.22,-000.13,-000.01,23.0,00.0,0624.3,30.8
2020-03-14T00:18:00Z,00040380,01000600,-000.32,0000.46,-000.26,-000.66,-000.18,-000.24,-000.07,-000.45,-000.06,23.0,00.0,0624.3,30.8
2020-03-14T00:19:00Z,00040380,01000600,0000.07,0000.34,0000.20,0000.47,0000.01,-000.07,-000.05,-000.12,-000.19,22.9,00.0,0624.3,30.8
2020-03-14T00:20:00Z,00040380,01000600,-000.58,0000.62,0000.07,0000.43,0000.07,0000.02,0000.08,0000.14,0000.00,22.9,00.0,0624.3,30.8
2020-03-14T00:21:00Z,00040380,01000600,0000.51,0000.49,0000.13,0000.49,-000.15,0000.15,-000.02,-000.02,0000.01,22.9,00.0,0624.3,30.8
2020-03-14T00:22:00Z,00040380,01000600,0001.08,0000.29,0000.06,0000.65,-000.04,-000.27,0000.03,0000.12,0000.09,22.9,00.0,0624.3,30.8
2020-03-14T00:23:00Z,00040380,01000600,0000.98,0000.18,-000.08,0000.57,0000.22,-000.08,0000.22,0000.15,0000.11,23.0,00.0,0624.3,30.8
2020-03-14T00:24:00Z,00040380,01000600,0000.91,0000.33,-000.09,-000.58,-000.34,0000.02,-000.08,-000.03,-000.01,23.0,00.0,0624.4,30.9
2020-03-14T00:25:00Z,00040380,01000600,0000.23,0000.57,0000.43,0000.23,-000.50,-000.59,0000.09,-000.10,-000.02,23.0,00.0,0624.4,30.9
2020-03-14T00:26:00Z,00040380,01000600,-001.14,0000.23,0000.64,0000.02,-000.04,-000.26,0000.19,0000.24,0000.23,23.0,00.0,0624.4,30.9
2020-03-14T00:27:00Z,00040380,01000600,0000.01,0001.13,0000.15,0000.50,0000.38,-000.26,-000.05,0000.11,0000.16,23.0,00.0,0624.4,30.9
2020-03-14T00:28:00Z,00040380,01000600,0000.68,0000.53,0000.46,-000.21,0000.26,0000.00,0000.07,0000.04,-000.17,23.0,00.0,0624.3,30.9
2020-03-14T00:29:00Z,00040380,01000600,0001.27,0000.50,-000.09,-000.71,-000.13,0000.08,-000.10,0000.10,0000.04,23.0,00.0,0624.3,30.9
2020-03-14T00:30:00Z,00040380,01000600,0000.95,0000.47,-000.01,0000.07,0000.12,0000.09,-000.10,-000.06,0000.01,23.0,00.0,0624.3,30.8
2020-03-14T00:31:00Z,00040380,01000600,0000.42,0000.26,0000.44,0000.29,0000.37,-000.16,0000.17,-000.07,0000.01,23.0,00.0,0624.3,30.8
2020-03-14T00:32:00Z,00040380,01000600,0000.07,0000.44,0000.08,0000.95,0000.04,-000.24,0000.09,0000.18,0000.12,23.0,00.0,0624.3,30.8
2020-03-14T00:33:00Z,00040380,01000600,0001.44,0000.63,0000.47,-001.36,-000.01,-000.20,-000.17,-000.40,-000.18,22.9,00.0,0624.3,30.8
2020-03-14T00:34:00Z,00040380,01000600,-000.25,0000.73,-000.19,-000.18,0000.04,0000.21,-000.41,-000.41,-000.33,22.9,00.0,0624.3,30.8
2020-03-14T00:35:00Z,00040380,01000600,-000.31,0000.52,0000.25,0000.49,0000.23,0000.12,-000.17,-000.11,-000.11,22.9,00.0,0624.4,30.8
2020-03-14T00:36:00Z,00040380,01000600,0000.63,0000.33,-000.20,0000.07,0000.11,0000.02,-000.30,-000.21,-000.21,22.9,00.0,0624.4,30.8
2020-03-14T00:37:00Z,00040380,01000600,0000.85,-000.46,-000.11,0000.61,0001.10,-000.21,0000.01,-000.27,0000.13,23.0,00.0,0624.5,30.8
2020-03-14T00:38:00Z,00040380,01000600,0000.37,0001.25,0000.32,0000.42,-000.40,-000.42,-000.42,-000.02,-000.22,23.0,00.0,0624.5,30.9
2020-03-14T00:39:00Z,00040380,01000600,-000.23,0000.42,0000.22,-000.19,-000.02,-000.32,0000.03,-000.21,-000.01,23.0,00.0,0624.5,30.8
2020-03-14T00:40:00Z,00040380,01000600,0000.81,0000.74,-000.18,0000.12,0000.45,-000.20,0000.03,0000.35,0000.10,23.0,00.0,0624.5,30.9
2020-03-14T00:41:00Z,00040380,01000600,0000.88,0000.28,0000.43,0000.34,-000.13,0000.04,-000.06,-000.13,-000.02,23.0,00.0,0624.5,30.9
2020-03-14T00:42:00Z,00040380,01000600,0001.20,0000.61,-000.12,0000.28,0000.26,-000.03,-000.19,0000.15,0000.07,23.0,00.0,0624.5,30.9
2020-03-14T00:43:00Z,00040380,01000600,0001.75,0000.60,0000.25,-000.48,0000.10,0000.56,0000.25,0000.04,0000.00,23.0,00.0,0624.4,30.8
2020-03-14T00:44:00Z,00040380,01000600,-000.34,0000.77,0000.04,0000.24,0000.21,-000.17,0000.03,-000.13,0000.05,23.0,00.0,0624.4,30.8
2020-03-14T00:45:00Z,00040380,01000600,0000.24,0000.75,0000.02,-000.17,-000.18,-000.47,-000.07,-000.09,-000.27,23.0,00.0,0624.4,30.8
2020-03-14T00:46:00Z,00040380,01000600,0001.49,0000.59,0000.01,0000.43,0000.24,-000.14,-000.02,0000.19,0000.35,23.0,00.0,0624.4,30.8
2020-03-14T00:47:00Z,00040380,01000600,0000.13,0000.33,-000.06,0000.51,-000.47,0000.12,0000.03,-000.13,-000.08,22.9,00.0,0624.4,30.8
2020-03-14T00:48:00Z,00040380,01000600,0000.79,0000.21,0000.57,0001.28,-000.10,0000.11,-000.04,0000.08,0000.08,22.9,00.0,0624.3,30.8
2020-03-14T00:49:00Z,00040380,01000600,0000.02,0001.06,0000.00,0001.03,0000.17,-000.24,0000.03,-000.37,-000.19,22.9,00.0,0624.3,30.8
2020-03-14T00:50:00Z,00040380,01000600,0000.70,0000.17,0000.04,0001.15,0000.16,0000.17,0000.17,0000.31,0000.20,22.9,00.0,0624.3,30.8
2020-03-14T00:51:00Z,00040380,01000600,0000.82,0000.54,0000.17,0000.30,0000.13,-000.10,0000.05,0000.06,0000.03,22.9,00.0,0624.4,30.8
2020-03-14T00:52:00Z,00040380,01000600,0000.97,0000.05,0000.47,0000.28,0000.04,-000.00,-000.05,0000.15,0000.02,22.9,00.0,0624.4,30.9
2020-03-14T00:53:00Z,00040380,01000600,0000.59,0000.41,-000.02,0000.21,0000.48,-000.24,-000.11,-000.34,-000.26,23.0,00.0,0624.3,30.9
2020-03-14T00:54:00Z,00040380,01000600,0000.94,0000.14,0000.28,0000.13,0000.31,0000.28,0000.20,0000.50,0000.15,23.0,00.0,0624.3,30.9
2020-03-14T00:55:00Z,00040380,01000600,0001.09,0000.17,-000.25,0000.53,0000.54,-000.27,0000.14,0000.18,0000.28,22.9,00.0,0624.3,30.9
2020-03-14T00:56:00Z,00040380,01000600,0001.43,0000.26,-000.05,0000.47,0000.01,-000.29,0000.17,0000.12,0000.04,22.9,00.0,0624.3,30.8
2020-03-14T00:57:00Z,00040380,41000600,,,,,,,,,,23.0,00.0,0624.2,30.8
2020-03-14T00:58:00Z,00040380,61000600,,,,,,,,,,23.1,00.0,0623.3,30.8
2020-03-14T00:59:00Z,00040380,21000600,,,,,,,,,,23.2,00.0,0623.3,30.8
2020-03-14T01:00:00Z,00040380,21000600,,,,,,,,,,23.2,00.0,0623.2,30.8
2020-03-14T01:01:00Z,00040388,21000608,,,,,,,,,,23.2,00.0,0623.2,30.8
2020-03-14T01:02:00Z,00040388,21000608,,,,,,,,,,23.2,00.0,0623.2,30.8
2020-03-14T01:03:00Z,00040388,61000608,,,,,,,,,,23.2,00.0,0623.2,30.8
2020-03-14T01:04:00Z,00040388,41000608,0000.88,0000.20,-000.46,0000.19,0000.13,-000.19,-000.15,-000.47,-000.03,22.9,00.0,0624.0,30.8
2020-03-14T01:05:00Z,00040388,01000608,0000.27,0000.55,0000.07,0000.26,-000.08,0000.26,0000.10,0000.24,0000.16,22.9,00.0,0624.1,30.8
2020-03-14T01:06:00Z,00040388,01000608,-000.39,0000.87,0000.65,0000.44,0000.30,-000.04,0000.13,0000.19,0000.12,22.9,00.0,0624.1,30.8
2020-03-14T01:07:00Z,00040388,01000608,-000.55,0000.71,0000.08,-000.62,0000.09,-000.65,-000.15,-000.15,-000.29,22.9,00.0,0624.1,30.8
2020-03-14T01:08:00Z,00040388,01000608,0000.50,0000.19,0000.04,-000.67,0000.25,-000.10,0000.12,0000.30,0000.32,22.9,00.0,0624.1,30.9
2020-03-14T01:09:00Z,00040388,01000608,0000.79,0000.56,0000.39,0000.33,0000.37,0000.01,-000.05,-000.15,-000.10,22.9,00.0,0624.1,30.9
2020-03-14T01:10:00Z,00040388,01000608,-000.73,0000.76,0000.07,0000.53,-000.13,0000.05,-000.02,0000.01,-000.18,22.9,00.0,0624.1,30.9
2020-03-14T01:11:00Z,00040388,01000608,0000.75,0000.50,0000.14,0000.39,0000.35,0000.09,0000.20,0000.10,0000.25,22.9,00.0,0624.1,30.9
2020-03-14T01:12:00Z,00040388,01000608,0000.77,0000.71,0000.56,-000.28,-000.04,-000.13,0000.03,0000.15,0000.17,22.9,00.0,0624.1,30.9
2020-03-14T01:13:00Z,00040388,01000608,0000.67,0000.97,0000.12,-000.79,0000.23,-000.05,0000.14,0000.06,-000.04,22.9,00.0,0624.0,30.9
2020-03-14T01:14:00Z,00040388,01000608,0000.38,0000.26,0000.02,-000.34,0000.08,0000.10,0000.11,0000.17,0000.07,22.9,00.0,0624.0,30.9
2020-03-14T01:15:00Z,00040388,01000608,0000.63,0000.76,0000.81,0001.38,0000.02,0000.03,-000.04,0000.30,-000.05,22.9,00.0,0624.0,30.9
2020-03-14T01:16:00Z,00040388,01000608,0002.12,0000.11,0000.24,0000.52,0000.20,0000.05,-000.06,-000.32,0000.17,22.9,00.0,0624.0,30.8
2020-03-14T01:17:00Z,00040388,01000608,0000.89,0000.37,0000.64,0000.68,0000.37,-000.14,0000.01,0000.07,0000.02,22.9,00.0,0623.9,30.8
2020-03-14T01:18:00Z,00040388,01000608,0000.60,0000.33,0000.17,-000.05,0000.05,-000.33,0000.02,-000.20,-000.06,22.9,00.0,0623.9,30.8
2020-03-14T01:19:00Z,00040388,01000608,0000.14,0000.29,0000.12,0000.27,0000.39,-000.00,-000.12,-000.29,-000.23,22.9,00.0,0623.9,30.8
2020-03-14T01:20:00Z,00040388,01000608,0000.14,0000.19,-000.33,-000.33,-000.49,-000.20,0000.15,0000.10,0000.08,22.9,00.0,0623.9,30.8
2020-03-14T01:21:00Z,00040388,01000608,-000.30,0000.25,0000.42,0000.17,-000.05,0000.46,0000.14,0000.10,0000.03,22.8,00.0,0623.9,30.8
2020-03-14T01:22:00Z,00040388,01000608,0000.38,0000.57,0000.37,0000.52,-000.21,-000.50,-000.05,0000.33,0000.12,22.9,00.0,0624.0,30.8
2020-03-14T01:23:00Z,00040388,01000608,-000.86,0000.71,0000.01,-000.34,0000.40,0000.03,0000.11,0000.12,-000.00,22.9,00.0,0624.0,30.9
2020-03-14T01:24:00Z,00040388,01000608,-000.71,0000.22,0000.12,-000.66,0000.09,-000.26,-000.03,-000.00,-000.01,22.9,00.0,0624.0,30.9
2020-03-14T01:25:00Z,00040388,01000608,0000.91,0000.77,-000.14,-000.52,-000.27,-000.33,0000.07,-000.25,0000.08,23.0,00.0,0624.0,30.9
2020-03-14T01:26:00Z,00040388,01000608,0000.96,0000.22,0000.04,-000.72,-000.20,-000.25,-000.07,0000.02,-000.05,23.0,00.0,0624.0,30.9
2020-03-14T01:27:00Z,00040388,01000608,-000.15,-000.49,0000.33,0001.06,-000.18,-000.42,0000.21,0000.38,0000.22,23.0,00.0,0624.0,30.9
2020-03-14T01:28:00Z,00040388,01000608,0001.50,0000.17,-000.12,-000.52,0000.43,-000.01,0000.07,0000.09,0000.13,23.0,00.0,0624.0,30.9
2020-03-14T01:29:00Z,00040388,01000608,0000.28,0000.47,-000.01,0000.11,0000.08,-000.04,-000.05,-000.04,-000.06,23.0,00.0,0624.0,30.9
2020-03-14T01:30:00Z,00040388,01000608,0000.38,0000.18,0000.36,0000.09,-000.11,-000.02,0000.16,0000.10,0000.01,23.0,00.0,0623.9,30.9
2020-03-14T01:31:00Z,00040388,01000608,0001.18,0000.24,-000.11,0000.75,0000.54,-000.06,-000.08,0000.04,0000.06,23.0,00.0,0623.9,30.9
2020-03-14T01:32:00Z,00040388,01000608,-000.09,0000.76,0000.59,0000.01,-000.06,0000.02,-000.01,-000.21,-000.06,23.0,00.0,0623.9,30.9
2020-03-14T01:33:00Z,00040388,01000608,-000.25,0000.75,-000.15,-000.33,0000.01,-000.03,-000.14,-000.06,-000.04,23.0,00.0,0623.9,30.8
2020-03-14T01:34:00Z,00040388,01000608,-001.02,0000.50,0000.20,0000.13,0000.16,0000.36,-000.06,-000.37,-000.17,23.0,00.0,0623.9,30.8
2020-03-14T01:35:00Z,00040388,01000608,-000.66,0000.16,0000.13,-001.08,-000.36,0000.16,0000.11,0000.21,-000.02,23.0,00.0,0623.9,30.8
2020-03-14T01:36:00Z,00040388,01000608,-000.13,0000.16,-000.16,0000.08,0000.16,-000.34,0000.15,0000.04,0000.14,23.0,00.0,0623.9,30.8
2020-03-14T01:37:00Z,00040388,01000608,0000.08,0000.11,-000.04,0000.03,0000.05,-000.00,-000.09,0000.18,0000.00,23.0,00.0,0623.9,30.9
2020-03-14T01:38:00Z,00040388,01000608,-000.22,-000.09,-000.22,0000.29,-000.09,-000.58,0000.07,-000.15,0000.00,23.0,00.0,0623.9,30.9
2020-03-14T01:39:00Z,00040388,01000608,-000.41,0000.32,0000.21,0000.62,-000.11,-000.40,0000.09,0000.41,0000.12,23.0,00.0,0623.9,30.9
2020-03-14T01:40:00Z,00040388,01000608,0000.33,0001.17,-000.52,0000.65,-000.56,-000.56,0000.17,-000.01,0000.08,23.0,00.0,0623.9,30.9
2020-03-14T01:41:00Z,00040388,01000608,0001.01,0000.10,0000.14,0000.45,0000.08,-000.37,-000.02,0000.06,0000.05,23.0,00.0,0623.8,30.9
2020-03-14T01:42:00Z,00040388,01000608,-000.50,0000.02,0000.09,0000.25,0000.15,-000.01,0000.06,0000.07,-000.05,23.0,00.0,0623.8,30.9
2020-03-14T01:43:00Z,00040388,01000608,0000.16,0000.31,0000.12,-000.62,0000.21,0000.20,-000.05,-000.20,-000.05,23.0,00.0,0623.8,30.9
2020-03-14T01:44:00Z,00040388,01000608,0000.77,0000.77,0000.80,0000.15,-000.24,0000.10,0000.19,0000.17,0000.17,23.0,00.0,0623.8,30.9
2020-03-14T01:45:00Z,00040388,01000608,-000.06,0000.94,-000.13,-000.23,0000.48,-000.33,0000.08,0000.15,0000.13,23.0,00.0,0623.8,30.8
2020-03-14T01:46:00Z,00040388,01000608,0000.63,0000.39,-000.14,-000.39,-000.02,-000.43,-000.11,0000.05,-000.16,23.0,00.0,0623.8,30.8
2020-03-14T01:47:00Z,00040388,01000608,0000.79,0000.72,0000.32,0000.18,0000.18,-000.59,0000.05,-000.15,0000.19,23.0,00.0,0623.8,30.8
2020-03-14T01:48:00Z,00040388,01000608,0000.12,0000.50,0000.14,0000.02,0000.20,-000.09,-000.24,-000.30,-000.30,23.0,00.0,0623.8,30.8
2020-03-14T01:49:00Z,00040388,01000608,-000.09,0000.36,0000.16,-000.05,-000.11,-000.00,0000.09,-000.34,-000.02,22.9,00.0,0623.8,30.8
2020-03-14T01:50:00Z,00040388,01000608,0000.94,0001.01,0000.29,0000.55,0000.06,0000.13,-000.06,0000.29,0000.09,22.9,00.0,0623.8,30.8
2020-03-14T01:51:00Z,00040388,01000608,0000.42,0000.38,0000.63,-001.06,-000.15,0000.10,0000.28,0000.22,-000.18,22.9,00.0,0623.8,30.8
2020-03-14T01:52:00Z,00040388,01000608,-000.11,0000.17,0000.32,-000.25,0000.19,0000.13,0000.09,0000.23,0000.33,23.0,00.0,0623.9,30.9
2020-03-14T01:53:00Z,00040388,01000608,0000.10,-000.47,-000.13,0000.20,-000.13,0000.07,-000.23,-000.31,-000.21,23.0,00.0,0623.9,30.9
2020-03-14T01:54:00Z,00040388,01000608,0000.89,-000.11,0000.09,-000.19,-000.00,-000.03,0000.19,0000.36,0000.30,23.0,00.0,0623.9,30.9
2020-03-14T01:55:00Z,00040388,01000608,-001.61,0000.50,0000.13,0000.28,0000.64,0000.11,0000.02,0000.08,-000.13,23.0,00.0,0623.9,30.9
2020-03-14T01:56:00Z,00040388,01000608,-000.09,-000.19,-000.05,-000.35,0000.35,-000.06,0000.17,0000.18,0000.10,23.0,00.0,0623.9,30.9
2020-03-14T01:57:00Z,00040388,41000608,,,,,,,,,,23.0,00.0,0623.9,30.9
2020-03-14T01:58:00Z,00040388,61000608,,,,,,,,,,23.1,00.0,0623.0,30.8
2020-03-14T01:59:00Z,00040388,21000608,,,,,,,,,,23.2,00.0,0622.9,30.8
2020-03-14T02:00:00Z,00040388,21000608,,,,,,,,,,23.2,00.0,0622.9,30.8
2020-03-14T02:01:00Z,00040388,21000608,,,,,,,,,,23.2,00.0,0622.9,30.8
2020-03-14T02:02:00Z,00040388,21000608,,,,,,,,,,23.2,00.0,0622.9,30.8
2020-03-14T02:03:00Z,00040388,61000608,,,,,,,,,,23.2,00.0,0622.9,30.8
2020-03-14T02:04:00Z,00040388,41000608,0000.51,0000.42,-000.07,0000.42,0000.53,0000.14,-000.13,-000.21,-000.20,23.0,00.0,0623.7,30.8
2020-03-14T02:05:00Z,00040380,01000600,0000.23,0000.29,0000.41,-000.45,0000.21,-000.05,0000.15,0000.20,0000.24,22.9,00.0,0623.8,30.8
2020-03-14T02:06:00Z,00040380,01000600,0000.13,0000.34,0000.13,0000.49,-000.03,0000.17,0000.25,0000.05,0000.09,22.9,00.0,0623.8,30.8
2020-03-14T02:07:00Z,00040380,01000600,-001.84,-000.40,0000.34,0000.22,0000.23,0000.17,-000.10,-000.01,-000.07,22.9,00.0,0623.9,30.8
2020-03-14T02:08:00Z,00040380,01000600,-000.28,0000.17,0000.10,-000.40,0000.06,0000.36,0000.25,0000.22,0000.21,23.0,00.0,0623.9,30.8
2020-03-14T02:09:00Z,00040380,01000600,-000.42,0000.61,0000.34,0000.25,-000.16,0000.33,-000.14,-000.01,-000.14,23.0,00.0,0623.9,30.9
2020-03-14T02:10:00Z,00040380,01000600,0000.20,0000.26,-000.19,0000.37,0000.21,-000.24,0000.09,0000.23,0000.14,23.0,00.0,0623.8,30.9
2020-03-14T02:11:00Z,00040380,01000600,0000.09,0000.26,0000.10,-000.01,-000.17,-000.16,0000.27,0000.08,0000.08,23.0,00.0,0623.8,30.9
2020-03-14T02:12:00Z,00040380,01000600,0000.05,0000.01,0000.03,0000.31,-000.08,-000.01,0000.06,0000.17,0000.07,22.9,00.0,0623.8,30.9
2020-03-14T02:13:00Z,00040380,01000600,-000.02,0000.25,0000.37,0000.12,0000.11,0000.19,0000.06,0000.04,0000.05,22.9,00.0,0623.8,30.9
2020-03-14T02:14:00Z,00040380,01000600,0001.59,0000.57,0000.14,-000.38,-000.11,0000.04,-000.09,0000.11,0000.10,22.9,00.0,0623.7,30.8
2020-03-14T02:15:00Z,00040380,01000600,0001.22,0000.65,0000.33,0000.67,0000.14,0000.29,0000.17,-000.13,-000.16,22.9,00.0,0623.7,30.8
2020-03-14T02:16:00Z,00040380,01000600,-000.55,0000.62,0000.24,0000.48,-000.27,-000.03,0000.09,0000.04,0000.28,22.9,00.0,0623.7,30.8
2020-03-14T02:17:00Z,00040380,01000600,0000.95,-000.01,0000.07,0000.02,-000.19,-000.18,-000.01,0000.01,-000.37,22.9,00.0,0623.7,30.8
2020-03-14T02:18:00Z,00040380,01000600,-000.84,0000.75,-000.08,-000.32,-000.06,-000.35,-000.13,-000.15,0000.12,22.9,00.0,0623.7,30.8
2020-03-14T02:19:00Z,00040380,01000600,-000.69,0000.11,-000.33,0000.12,0000.23,-000.09,-000.04,-000.25,-000.12,22.9,00.0,0623.7,30.8
2020-03-14T02:20:00Z,00040380,01000600,0000.97,0000.31,-000.07,-000.41,0000.18,0000.01,0000.04,0000.13,0000.07,22.9,00.0,0623.7,30.8
2020-03-14T02:21:00Z,00040380,01000600,-000.90,-000.43,0000.19,0000.58,-000.11,0000.20,0000.05,0000.02,0000.02,22.8,00.0,0623.7,30.8
2020-03-14T02:22:00Z,00040380,01000600,-000.01,0000.43,0000.02,0000.07,0000.01,-000.29,-000.04,-000.00,0000.04,22.9,00.0,0623.7,30.8
2020-03-14T02:23:00Z,00040380,01000600,0001.47,0000.50,0000.73,0000.51,0000.59,0000.21,0000.21,0000.22,0000.14,22.9,00.0,0623.7,30.8
2020-03-14T02:24:00Z,00040380,01000600,0000.07,0000.92,0000.28,0000.29,-000.15,0000.29,0000.04,0000.16,-000.12,22.9,00.0,0623.7,30.9
2020-03-14T02:25:00Z,00040380,01000600,0000.83,0000.38,0000.15,0000.20,0000.33,-000.12,0000.00,-000.20,0000.15,22.9,00.0,0623.7,30.9
2020-03-14T02:26:00Z,00040380,01000600,0000.10,0000.26,0000.17,0000.32,-000.18,0000.47,0000.14,0000.50,0000.14,22.9,00.0,0623.7,30.9
2020-03-14T02:27:00Z,00040380,01000600,0000.96,0000.44,0000.07,-000.26,0000.28,0000.07,-000.00,0000.08,-000.05,22.9,00.0,0623.7,30.9
2020-03-14T02:28:00Z,00040380,01000600,0000.09,0001.38,0000.18,-000.46,0000.25,0000.52,0000.10,0000.05,0000.16,22.9,00.0,0623.7,30.8
2020-03-14T02:29:00Z,00040380,01000600,0001.18,0000.74,-000.16,0000.39,0000.06,-000.06,-000.04,0000.04,0000.06,22.9,00.0,0623.7,30.8
2020-03-14T02:30:00Z,00040380,01000600,0000.69,-000.05,-000.38,-000.20,0000.12,-000.10,-000.01,-000.16,-000.01,22.9,00.0,0623.6,30.8
2020-03-14T02:31:00Z,00040380,01000600,-000.49,0000.46,-000.15,0000.04,-000.15,0000.36,0000.25,0000.12,0000.03,22.9,00.0,0623.6,30.8
2020-03-14T02:32:00Z,00040380,01000600,0001.14,0000.65,0000.35,-000.16,0000.28,0000.04,-000.00,0000.10,0000.05,22.9,00.0,0623.6,30.8
2020-03-14T02:33:00Z,00040380,01000600,0001.10,0000.24,0000.08,-000.58,0000.24,0000.52,-000.17,-000.30,-000.27,22.9,00.0,0623.6,30.8
2020-03-14T02:34:00Z,00040380,01000600,-001.35,0000.64,-000.36,-000.10,0000.34,-000.01,-000.05,-000.18,0000.01,22.8,00.0,0623.6,30.8
2020-03-14T02:35:00Z,00040380,01000600,-000.96,0000.57,-000.00,0000.14,-000.39,-000.22,-000.01,-000.09,0000.06,22.8,00.0,0623.6,30.8
2020-03-14T02:36:00Z,00040380,01000600,0001.74,0000.39,-000.05,-000.16,0000.46,0000.09,0000.09,0000.16,0000.14,22.9,00.0,0623.6,30.8
2020-03-14T02:37:00Z,00040380,01000600,0000.38,0000.43,-000.21,0000.43,0000.01,-000.15,0000.11,0000.21,-000.07,22.9,00.0,0623.6,30.8
2020-03-14T02:38:00Z,00040380,01000600,-000.91,0000.59,0000.27,0000.23,-000.14,0000.60,0000.05,0000.03,0000.20,22.9,00.0,0623.6,30.9
2020-03-14T02:39:00Z,00040380,01000600,0001.45,0000.57,-000.04,0000.33,0000.15,0000.02,0000.00,0000.14,0000.00,23.0,00.0,0623.7,30.9
2020-03-14T02:40:00Z,00040380,01000600,-001.42,-000.34,0000.60,0000.12,0000.40,0000.11,-000.06,-000.21,-000.13,23.0,00.0,0623.7,30.9
2020-03-14T02:41:00Z,00040380,01000600,0000.52,0000.76,0000.27,0000.15,-000.21,0000.30,0000.23,0000.25,0000.16,23.0,00.0,0623.7,30.9
2020-03-14T02:42:00Z,00040380,01000600,-000.46,0000.62,0000.31,0000.23,-000.15,-000.25,0000.19,0000.12,0000.06,23.0,00.0,0623.6,30.9
2020-03-14T02:43:00Z,00040380,01000600,0001.34,0000.42,0000.25,0000.71,0000.15,0000.17,-000.03,0000.11,-000.01,23.0,00.0,0623.6,30.9
2020-03-14T02:44:00Z,00040380,01000600,-000.26,0000.58,0000.70,0000.30,0000.28,0000.27,-000.02,-000.08,0000.02,23.0,00.0,0623.6,30.8
2020-03-14T02:45:00Z,00040380,01000600,0000.18,0000.87,0000.56,0000.12,0000.30,0000.30,0000.07,0000.21,0000.02,22.9,00.0,0623.5,30.8
2020-03-14T02:46:00Z,00040380,01000600,-000.55,0001.28,0000.04,0000.56,-000.12,-000.21,-000.14,-000.24,-000.10,22.9,00.0,0623.5,30.8
2020-03-14T02:47:00Z,00040380,01000600,0000.93,0000.58,0000.13,0000.33,0000.23,0000.44,0000.24,0000.17,0000.10,22.9,00.0,0623.5,30.8
2020-03-14T02:48:00Z,00040380,01000600,0000.29,0000.82,-000.09,0000.44,0000.42,0000.01,-000.03,-000.06,-000.09,22.9,00.0,0623.5,30.8
2020-03-14T02:49:00Z,00040380,01000600,0000.44,0000.25,0000.04,-000.02,0000.09,0000.12,-000.21,-000.38,0000.08,22.9,00.0,0623.5,30.8
2020-03-14T02:50:00Z,00040380,01000600,-001.02,0000.09,0000.25,0000.06,0000.01,-000.17,0000.03,0000.18,-000.08,22.9,00.0,0623.5,30.8
2020-03-14T02:51:00Z,00040380,01000600,0000.44,-000.32,-000.64,-000.31,0000.14,0000.08,-000.16,-000.19,-000.11,22.9,00.0,0623.6,30.8
2020-03-14T02:52:00Z,00040380,01000600,-000.52,0000.15,0000.20,0000.48,0000.23,0000.26,0000.05,0000.16,0000.04,22.9,00.0,0623.6,30.9
2020-03-14T02:53:00Z,00040380,01000600,0000.18,0000.57,0000.44,0000.24,0000.09,0000.16,-000.07,0000.05,-000.07,22.9,00.0,0623.6,30.9
2020-03-14T02:54:00Z,00040380,01000600,0000.71,0000.60,0000.63,-000.07,0000.12,-000.17,0000.05,-000.11,0000.01,22.9,00.0,0623.6,30.9
2020-03-14T02:55:00Z,00040380,01000600,-000.57,0000.39,0000.29,-000.36,-000.09,-000.10,-000.16,0000.09,-000.07,22.9,00.0,0623.6,30.8
2020-03-14T02:56:00Z,00040380,01000600,0000.46,-000.04,0000.08,0000.24,-000.04,-000.17,-000.12,-000.24,0000.06,22.9,00.0,0623.5,30.8
2020-03-14T02:57:00Z,00040380,41000600,,,,,,,,,,22.9,00.0,0623.5,30.8
2020-03-14T02:58:00Z,00040380,61000600,,,,,,,,,,23.0,00.0,0622.6,30.8
2020-03-14T02:59:00Z,00040380,21000600,,,,,,,,,,23.1,00.0,0622.6,30.8
2020-03-14T03:00:00Z,00040380,21000600,,,,,,,,,,23.1,00.0,0622.6,30.8
2020-03-14T03:01:00Z,00040380,21000600,,,,,,,,,,23.1,00.0,0622.6,30.8
2020-03-14T03:02:00Z,00040380,21000600,,,,,,,,,,23.1,00.0,0622.6,30.8
2020-03-14T03:03:00Z,00040380,61000600,,,,,,,,,,23.1,00.0,0622.6,30.8
2020-03-14T03:04:00Z,00040380,41000600,0000.66,0001.05,0000.80,0000.62,0000.30,0000.51,-000.13,-000.20,-000.14,22.9,00.0,0623.5,30.8
2020-03-14T03:05:00Z,00040380,01000600,0001.53,0000.69,0000.50,0001.13,0000.07,0000.34,0000.21,0000.08,0000.17,22.8,00.0,0623.6,30.8
2020-03-14T03:06:00Z,00040380,01000600,0001.22,-000.32,-000.01,0001.22,0000.12,0000.24,0000.14,0000.22,0000.06,22.8,00.0,0623.6,30.8
2020-03-14T03:07:00Z,00040380,01000600,0000.72,-000.34,0000.50,0000.47,0000.05,0000.40,-000.11,0000.04,-000.01,22.8,00.0,0623.6,30.9
2020-03-14T03:08:00Z,00040380,01000600,0000.80,-000.43,-000.15,0001.68,-000.17,0000.03,-000.02,0000.24,0000.11,22.9,00.0,0623.6,30.9
2020-03-14T03:09:00Z,00040380,01000600,0000.89,-000.21,-000.02,0000.34,-000.07,0000.38,0000.08,0000.07,0000.18,22.9,00.0,0623.6,30.9
2020-03-14T03:10:00Z,00040380,01000600,0000.54,0000.41,-000.09,0001.03,-000.22,-000.02,0000.08,0000.17,-000.02,22.9,00.0,0623.6,30.9